Flag for Norway Weather past 2 weeks in Gjøvik, Norway

Now
51 °F

Cool.


Feels Like: 49 °F
Forecast: 41 / 49 °F
Wind: 5 mph from Southeast

Location: Lillehammer-Saetherengen

Current Time: May 6, 2015 at 10:35:15 PM

Latest Report: May 6, 2015 at 9:00 PM


Visibility: N/A

Pressure: 29.55 "Hg

Humidity: 71%

Dew point: 42 °F

Location of GjøvikLocation

Historic Weather in Gjøvik — Graph

°F

Gjøvik temperature yesterday

Maximum temperature yesterday: 46 °F (at 11:00 PM)
Minimum temperature yesterday: 38 °F (at 5:00 AM)
Average temperature yesterday: 42 °F

Past Weeks' High & Low Weather Summary

 TemperatureHumidityPressure
High59 °F (Apr 22, 4:00 PM)97% (May 5, 4:00 AM)30.27 "Hg (May 5, 4:00 AM)
Low29 °F (Apr 27, 5:00 AM)17% (Apr 27, 4:00 PM)29.23 "Hg (Apr 25, 9:00 PM)
Average42 °F66%29.70 "Hg
* Reported Apr 21 9:00 PM — May 6 9:00 PM, Gjøvik, Weather by CustomWeather, © 2015

Note: Actual official high and low records may vary slightly from our data, if they occured in-between our weather recording intervals... More about our weather records

Advertising

Gjøvik weather history for previous 24 hours

 ConditionsComfort  
Time TempWeatherWind HumidityBarometerVisibility
9:00 PM
Wed, May 6
51 °FCool.5 mph71%29.55 "HgN/A
8:00 PM52 °FCool.5 mph68%29.54 "HgN/A
7:00 PM53 °FCool.6 mph65%29.50 "HgN/A
6:00 PM52 °FCool.6 mph66%29.50 "HgN/A
5:00 PM57 °FRefreshingly cool.5 mph52%29.47 "HgN/A
4:00 PM58 °FRefreshingly cool.6 mph51%29.47 "HgN/A
3:00 PM57 °FRefreshingly cool.3 mph49%29.47 "HgN/A
2:00 PM58 °FRefreshingly cool.3 mph49%29.47 "HgN/A
1:00 PM57 °FRefreshingly cool.5 mph52%29.47 "HgN/A
12:00 PM56 °FRefreshingly cool.2 mph54%29.44 "HgN/A
11:00 AM56 °FRefreshingly cool.2 mph59%29.44 "HgN/A
10:00 AM54 °FCool.3 mph70%29.44 "HgN/A
9:00 AM50 °FCool.2 mph95%29.44 "HgN/A
8:00 AM49 °FCool.5 mph97%29.41 "HgN/A
7:00 AM48 °FCool.1 mph97%29.41 "HgN/A
6:00 AM48 °FCool.1 mph97%29.38 "HgN/A
4:00 AM47 °FCool.2 mph97%29.38 "HgN/A
3:00 AM47 °FCool.1 mph97%29.38 "HgN/A
2:00 AM47 °FCool.2 mph96%29.41 "HgN/A
1:00 AM47 °FCool.1 mph96%29.41 "HgN/A
12:00 AM47 °FCool.2 mph96%29.44 "HgN/A
11:00 PM
Tue, May 5
46 °FCool.2 mph96%29.44 "HgN/A
10:00 PM46 °FCool.3 mph95%29.47 "HgN/A
Weather by CustomWeather, © 2015

See weather overviewHow to use our weather pages